Location: Dana
(41.8364°N, 106.7042°W)
Time: 02:31:34
(UTC+00:00)

Altair - Pass Details

Date: 14 May 2026
Orbit: 1501 x 1682 km, 47.2° (Epoch: 6 June)

Event Time Altitude Azimuth Distance (km) Brightness Sun altitude
Rises 13:08:42 0° 247° (WSW) 4,839 9.5 13.4°
Reaches altitude 10° 13:11:47 10° 248° (WSW) 3,875 9.1 13.9°
Maximum altitude 13:21:49 84° 336° (NNW) 1,684 8.0 15.7°
Drops below altitude 10° 13:32:04 10° 67° (ENE) 3,948 11.6 17.6°
Sets 13:35:14 0° 68° (ENE) 4,934 11.7 18.2°
